Location: Bullfrog
(37.5121°N, 110.7330°W)
Time: 10:37:46
(UTC-06:00)

Tiangong - Visible Passes

Search period start: 25 September 2021 00:00
Search period end: 05 October 2021 00:00
Orbit: 382 x 385 km, 41.5° (Epoch: 25 September)

Date Brightness Start Highest point End Pass type
(mag) Time Alt. Az. Time Alt. Az. Time Alt. Az.
25 Sep 1.5 06:38:08 10° SW 06:41:14 60° SSE 06:44:21 10° ENE visible
26 Sep 2.2 05:41:00 32° SSE 05:41:24 33° SSE 05:44:17 10° E visible
27 Sep 1.0 06:16:22 23° WSW 06:18:11 82° NNW 06:21:21 10° ENE visible
28 Sep 2.8 05:19:26 33° E 05:19:26 33° E 05:21:25 10° ENE visible
29 Sep 1.3 05:54:39 47° NW 05:55:11 55° NNW 05:58:18 10° ENE visible
30 Sep 4.2 04:57:38 16° ENE 04:57:38 16° ENE 04:58:23 10° ENE visible
30 Sep 2.0 06:29:50 14° WNW 06:32:15 38° N 06:35:14 10° ENE visible
01 Oct 2.3 05:32:48 37° NNE 05:32:48 37° NNE 05:35:14 10° ENE visible
02 Oct 2.1 06:07:57 24° NW 06:09:18 38° N 06:12:17 10° ENE visible
03 Oct 3.7 05:10:55 20° NE 05:10:55 20° NE 05:12:13 10° ENE visible
03 Oct 1.5 06:43:13 10° WNW 06:46:20 57° NNE 06:49:27 10° E visible
04 Oct 1.8 05:46:07 43° N 05:46:18 43° N 05:49:21 10° E visible
